OBJECT C, 61896

Orbit data source: Space-Track

You're viewing an Uncataloged Satellite

Recently launched and/or uncataloged satellites may have evolving metadata. Metadata may include but not limited to: Owner, Maufacturer, Bus, Motor, and Mission.

OBJECT C, 61896 is a satellite owned by CASC (CN) in SSO that was launched on Mon, 11 Nov 2024 UTC via a LIJIAN-1 launch vehicle from the Jiuquan Satellite Launch Center, China (JSC). Unknown objects in Earth's orbit typically refer to objects detected orbiting the Earth but have not yet been identified or cataloged. These objects could be anything from previously untracked satellites, spent rocket stages, debris from satellite collisions, or even natural meteoroids temporarily captured by Earth's gravity.

Loading next visibility...
OBJECT C details
Identifier
61896, 2024-205C
Orbit
SSO
Last TLE update11 hours ago
Origin
Flag of CNCASC (CN / PRC)
ManufacturerSECM?
MissionOperational spacecraft
Bus & MotorUnknown
Mass~100 kg wet, ~100 kg dry
Launch date (UTC)
2024-11-11 (1 month ago)
Launch vehicle
LIJIAN-1
Launch site
Jiuquan Satellite Launch Center, China (JSC)
Object typeUnknown
Shape & HBRUnknown
Radar Cross SectionMedium (>0.1 m² and <1 m²)

Expand to show TLE details & history

TLE from 11 hours ago
0 OBJECT C
1 61896U 24205C   24348.44564755  .00015228  00000-0  80226-3 0  9993
2 61896  97.4731  60.0737 0014411 165.3692 194.7960 15.15600774  4858
Epoch: 2024-12-13T10:41Z
Definitive object data (Epoch: 2024-12-13T10:41:43.948Z)
Latitude-0.00007°
Longitude177.02907°
Altitude531.851 km
Speed7.592 km/s
True Right ascension04h 00m 17s
True Declination0° 00' 00"
Sunlit
Object was in full shadow at TLE epoch
Visualization TLE readout
Latitude81.23017°
Longitude119.75953°
Altitude530.561 km
Speed7.606 km/s
Apparent Right ascension07h 57m 05s
Apparent Declination32° 14' 56"
Sunlit
Object is in full shadow
Visualization observer readout
Local Sidereal Time20:41:37
Azimuth9.837° NNE
Elevation-17.102°
Doppler factor1
Orbital elements
Apogee altitude526.065 km
Perigee altitude506.195 km
Semi-major axis6,894.267 km
Eccentricity0.0014411
Inclination97.4731°
RAAN60.0737°
Arg. of periapsis165.3692°
True anomaly194.7539°
Mean anomaly194.796°
Eccentric anomaly194.77494°
Mean motion3.7915 °/min
BSTAR0.00080226
Orbital period94.95 mins
Loading maneuver chart data...
Loading historical data...
Loading historical data...
Loading historical data...
Loading historical data...
Loading historical data...
Loading historical data...
Loading historical data...

OBJECT C Visibility forecast

Observer location: undefined°, undefined

Span
Click to sort rows by Start time (UTC) header in descending order
Start Az.
Max El. time (UTC)
Max El. Az.
Max El.
End time (UTC)
End Az.
5 mins2024-12-14 04:16:45.845Z112.312° ESE2024-12-14 04:18:45.845Z71.394° E21.569°2024-12-14 04:21:45.845Z17.341° NNE
4 mins2024-12-14 05:51:45.845Z240.058° WSW2024-12-14 05:52:45.845Z262.604° W20.432°2024-12-14 05:55:45.845Z316.302° NNW
4 mins2024-12-14 17:23:45.845Z53.629° ENE2024-12-14 17:24:45.845Z81.206° E28.76°2024-12-14 17:27:45.845Z157.937° S
|